Skip Page Navigation
NASA JPL Caltech
NASA Logo - Jet Propulsion Laboratory + View the NASA Portal
+ Center for Near-Earth Object Studies
JPL Home Earth Solar System Stars & Galaxies Technology
JPL Solar System Dynamics
BODIES ORBITS EPHEMERIDES TOOLS PHYSICAL DATA DISCOVERY FAQ SITE MAP
JPL Small-Body Database Browser
Search: [ help ]  
214799 (2006 UU197)
Classification: Main-belt Asteroid          SPK-ID: 2214799
Ephemeris | Orbit Diagram | Orbital Elements | Mission Design | Physical Parameters | Discovery Circumstances | Close-Approach Data ]

[ show orbit diagram ]
Orbital Elements at Epoch 2459000.5 (2020-May-31.0) TDB
Reference: JPL 11 (heliocentric ecliptic J2000)
 Element Value Uncertainty (1-sigma)   Units 
e .0145850201258581 5.1147e-08  
a 3.064722796181786 3.0273e-08 au
q 3.020023752519298 1.6858e-07 au
i 3.015832230587282 7.9666e-06 deg
node 44.62556236849127 0.00010741 deg
peri 265.2284849090426 0.00031679 deg
M 288.1677249644143 0.00030036 deg
tp 2459391.523038039882
(2021-Jun-26.02303804)
0.0016348 TDB
period 1959.680291688117
5.37
2.9036e-05
7.95e-08
d
yr
n .1837034344463847 2.7219e-09 deg/d
Q 3.109421839844273 3.0715e-08 au
  Orbit Determination Parameters
   # obs. used (total)      192  
   data-arc span      8920 days (24.42 yr)  
   first obs. used      1995-11-19  
   last obs. used      2020-04-21  
   planetary ephem.      DE431  
   SB-pert. ephem.      SB431-N16  
   condition code      0  
   norm. resid. RMS      .5343  
   source      ORB  
   producer      Otto Matic  
   solution date      2020-May-21 09:11:00  

Additional Information
 Earth MOID = 2.00705 au 
 Jupiter MOID = 1.90714 au 
 T_jup = 3.230 
[ show covariance matrix ]

Ephemeris | Orbit Diagram | Orbital Elements | Mission Design | Physical Parameters | Discovery Circumstances | Close-Approach Data ]

Physical Parameter Table
Parameter Symbol Value Units Sigma Reference Notes
absolute magnitude H 16.1   n/a MPO470306  

214799 (2006 UU197)          Discovered 2006-Oct-20 by Spacewatch at Kitt Peak
Reference: 20090509/Numbers.arcLast Updated: 2009-05-11

[ show close-approach data ]
Ephemeris | Orbit Diagram | Orbital Elements | Mission Design | Physical Parameters | Discovery Circumstances | Close-Approach Data ]
ABOUT SSD CREDITS/AWARDS PRIVACY/COPYRIGHT GLOSSARY LINKS
FirstGov 2020-Jul-04 01:16 UT
(server date/time)  
NASA Home Page
Site Manager:   Ryan S. Park
Webmaster  Alan B. Chamberlin